This is the latest recevied weather packets stored in our database for station/object CE3RCJ-14. If no packets are shown the sender has not sent any weather packets the latest 10 day(s).
| Time | Temp. | Humidity | Pressure | Rain* | Wind** | Luminosity | Snow |
|---|---|---|---|---|---|---|---|
| 1777401219 | 20.56° C | 32% | 1015.7 hPa | - | - | - | - |
| 1777399435 | 20° C | 33% | 1016 hPa | - | - | - | - |
| 1777399086 | 20° C | 33% | 1016 hPa | - | - | - | - |
| 1777396981 | 20° C | 33% | 1016.6 hPa | - | - | - | - |
| 1777396781 | 19.44° C | 33% | 1016.8 hPa | - | - | - | - |
| 1777390684 | 17.78° C | 36% | 1018.3 hPa | - | - | - | - |
| 1777388903 | 17.22° C | 37% | 1018.3 hPa | - | - | - | - |
| 1777387383 | 16.67° C | 37% | 1018.3 hPa | - | - | - | - |
| 1777372381 | 13.33° C | 42% | 1019.8 hPa | - | - | - | - |
| 1777371535 | 13.33° C | 42% | 1019.6 hPa | - | - | - | - |
| 1777367281 | 13.89° C | 41% | 1019.5 hPa | - | - | - | - |
| 1777366683 | 13.89° C | 41% | 1019.7 hPa | - | - | - | - |
| 1777366080 | 13.89° C | 41% | 1019.7 hPa | - | - | - | - |
| 1777364283 | 13.89° C | 40% | 1019.8 hPa | - | - | - | - |
| 1777361881 | 13.89° C | 40% | 1019.7 hPa | - | - | - | - |
| 1777360686 | 14.44° C | 39% | 1019.8 hPa | - | - | - | - |
| 1777344512 | 15° C | 37% | 1019.3 hPa | - | - | - | - |
| 1777328337 | 16.67° C | 33% | 1018.5 hPa | - | - | - | - |
| 1777285579 | 8.89° C | 45% | 1020.6 hPa | - | - | - | - |
| 1777267843 | 10.56° C | 43% | 1020.7 hPa | - | - | - | - |
| 1777242456 | 18.33° C | 34% | 1017.1 hPa | - | - | - | - |
* Rain since midnight (hover to see other rain measurements)
** Current wind speed in m/s (hover to see current wind gust speed)